Weather History for Lebanon, NH

Change the Weather History Date:

Monday, December 31, 2012

  Actual Average Record
Temperature  
Mean Temperature 18 °F -  
Max Temperature 32 °F 28 °F 52 °F (1948)
Min Temperature 3 °F 9 °F -21 °F (1963)
Degree Days  
Heating Degree Days 48    
Moisture  
Dew Point 13 °F    
Average Humidity 73    
Maximum Humidity 84    
Minimum Humidity 64    
Precipitation  
Precipitation 0.00 in - - ()
Sea Level Pressure  
Sea Level Pressure 29.92 in    
Wind  
Wind Speed 2 mph (South)    
Max Wind Speed 10 mph    
Max Gust Speed -    
Visibility 10 miles    
Events      
Averages and records for this station are not official NWS values.
T = Trace of Precipitation, MM = Missing Value Source: NWS Daily Summary

Daily Weather History Graph

Daily Weather History Graph

Search for Another Location

Airport:

Trip Planner

Search our weather history database for the weather conditions in past years. The results will help you decide how hot, cold, wet, or windy it might be!

Date:

Astronomy

Dec. 31, 2012 Rise Set
Actual Time 7:22 AM EST 4:22 PM EST
Civil Twilight 6:49 AM EST 4:55 PM EST
Nautical Twilight 6:13 AM EST 5:31 PM EST
Astronomical Twilight 5:38 AM EST 6:06 PM EST
Moon 7:57 PM EST (12/31) 8:56 AM EST (12/31)
Length of Visible Light 10h 05m
Length of Day
8h 59m
Waning Gibbous, 90% of the Moon is Illuminated
Dec 31
Waning Gibbous
Jan 4
Last Quarter
Jan 11
New
Jan 18
First Quarter
Jan 26
Full

Hourly Weather History & Observations

Time (EST) Temp. Windchill Dew Point Humidity Pressure Visibility Wind Dir Wind Speed Gust Speed Precip Events Conditions
12:53 AM 6.1 °F - -0.0 °F 76% 30.04 in 10.0 mi Calm Calm - N/A   Mostly Cloudy
1:53 AM 3.0 °F -6.4 °F -2.0 °F 80% 30.05 in 10.0 mi NE 4.6 mph - N/A   Partly Cloudy
2:53 AM 3.9 °F - -0.0 °F 84% 30.05 in 10.0 mi Calm Calm - N/A   Overcast
3:53 AM 9.0 °F - 3.9 °F 80% 30.04 in 10.0 mi Calm Calm - N/A   Overcast
4:53 AM 10.0 °F - 5.0 °F 80% 30.02 in 10.0 mi Calm Calm - N/A   Overcast
5:53 AM 8.1 °F - 3.9 °F 83% 30.02 in 10.0 mi Calm Calm - N/A   Overcast
6:53 AM 10.9 °F - 6.1 °F 81% 30.04 in 10.0 mi Calm Calm - N/A   Overcast
7:53 AM 12.9 °F - 8.1 °F 81% 30.02 in 10.0 mi Calm Calm - N/A   Overcast
8:53 AM 15.1 °F - 10.0 °F 80% 30.02 in 10.0 mi Calm Calm - N/A   Overcast
9:53 AM 18.0 °F - 10.9 °F 74% 30.02 in 10.0 mi Calm Calm - N/A   Overcast
10:53 AM 19.9 °F - 12.0 °F 71% 30.00 in 10.0 mi Calm Calm - N/A   Overcast
11:36 AM 21.2 °F - 12.2 °F 68% 29.93 in 10.0 mi Calm Calm - N/A   Overcast
11:53 AM 21.9 °F - 12.9 °F 68% 29.97 in 10.0 mi Calm Calm - N/A   Overcast
12:53 PM 23.0 °F - 14.0 °F 68% 29.93 in 10.0 mi Calm Calm - N/A   Overcast
1:53 PM 24.1 °F - 15.1 °F 69% 29.90 in 10.0 mi Calm Calm - N/A   Overcast
2:53 PM 25.0 °F - 18.0 °F 75% 29.89 in 10.0 mi Calm Calm - N/A   Overcast
3:53 PM 28.0 °F 22.8 °F 21.9 °F 78% 29.87 in 10.0 mi South 4.6 mph - N/A   Overcast
4:53 PM 27.0 °F - 19.0 °F 72% 29.86 in 10.0 mi Calm Calm - N/A   Overcast
5:53 PM 30.0 °F 25.2 °F 21.0 °F 69% 29.84 in 10.0 mi South 4.6 mph - N/A   Overcast
6:53 PM 28.9 °F 23.9 °F 19.0 °F 67% 29.83 in 10.0 mi South 4.6 mph - N/A   Overcast
7:53 PM 28.9 °F 21.1 °F 19.0 °F 67% 29.81 in 10.0 mi SSW 8.1 mph - N/A   Mostly Cloudy
8:53 PM 30.9 °F 23.5 °F 19.9 °F 64% 29.78 in 10.0 mi SSW 8.1 mph - N/A   Overcast
9:53 PM 32.0 °F 24.2 °F 21.0 °F 64% 29.75 in 10.0 mi SSW 9.2 mph - N/A   Overcast
10:24 PM 32.0 °F 23.6 °F 21.2 °F 64% 29.71 in 10.0 mi South 10.4 mph - N/A   Overcast
10:53 PM 32.0 °F 24.8 °F 21.9 °F 66% 29.73 in 10.0 mi South 8.1 mph - N/A   Overcast
11:53 PM 32.0 °F 25.6 °F 23.0 °F 69% 29.70 in 10.0 mi South 6.9 mph - N/A   Overcast